This is the latest recevied weather packets stored in our database for station/object IR1BY-3. If no packets are shown the sender has not sent any weather packets the latest 10 day(s).
| Time | Temp. | Humidity | Pressure | Rain* | Wind** | Luminosity | Snow |
|---|---|---|---|---|---|---|---|
| 1777500665 | 12.78° C | 99% | 1016.7 hPa | - | - | - | - |
| 1777498865 | 12.78° C | 99% | 1016.6 hPa | - | - | - | - |
| 1777497064 | 12.78° C | 99% | 1016.3 hPa | - | - | - | - |
| 1777495264 | 12.78° C | 99% | 1015.9 hPa | - | - | - | - |
| 1777493464 | 13.33° C | 99% | 1015.8 hPa | - | - | - | - |
| 1777491664 | 13.33° C | 99% | 1015 hPa | - | - | - | - |
| 1777489834 | 14.44° C | 99% | 1015.1 hPa | - | - | - | - |
| 1777488023 | 15° C | 99% | 1015 hPa | - | - | - | - |
| 1777486191 | 16.67° C | 99% | 1014.7 hPa | - | - | - | - |
| 1777484373 | 18.89° C | 99% | 1014.3 hPa | - | - | - | - |
| 1777480733 | 23.33° C | 99% | 1014.2 hPa | - | - | - | - |
| 1777478912 | 23.89° C | 99% | 1014 hPa | - | - | - | - |
| 1777477091 | 25.56° C | 99% | 1014.2 hPa | - | - | - | - |
| 1777475272 | 27.22° C | 99% | 1014.4 hPa | - | - | - | - |
| 1777467996 | 39.44° C | 99% | 1015.3 hPa | - | - | - | - |
| 1777466177 | 37.78° C | 99% | 1015.4 hPa | - | - | - | - |
| 1777464377 | 34.44° C | 99% | 1015.5 hPa | - | - | - | - |
| 1777462577 | 28.33° C | 99% | 1015.5 hPa | - | - | - | - |
| 1777460776 | 27.78° C | 99% | 1015.5 hPa | - | - | - | - |
| 1777458976 | 33.89° C | 99% | 1015.6 hPa | - | - | - | - |
| 1777457176 | 35° C | 99% | 1015.6 hPa | - | - | - | - |
| 1777455375 | 32.22° C | 99% | 1015.8 hPa | - | - | - | - |
| 1777453575 | 30° C | 99% | 1015.8 hPa | - | - | - | - |
| 1777451774 | 25° C | 99% | 1015.7 hPa | - | - | - | - |
| 1777449975 | 23.89° C | 99% | 1015.6 hPa | - | - | - | - |
* Rain since midnight (hover to see other rain measurements)
** Current wind speed in m/s (hover to see current wind gust speed)